{"data":{"norad_id":63848,"intl_designator":"2025-093N","name":"STARLINK-34010","alt_names":[],"object_type":"PAYLOAD","status":"ACTIVE","operator":null,"country":"US","launch_date":"2025-05-07","launch_site_code":"AFETR","launch_vehicle":null,"mission":null,"orbit_class":"UNKNOWN","rcs_meters":null,"size_class":null,"mass_kg":null,"dimensions":null,"purposes":["comms"],"wikipedia_slug":null,"has_3d_model":false,"image_url":null,"decayed_at":null,"tle_current":{"epoch":"2026-09-20T03:45:27.608256Z","epoch_age_seconds":179573,"freshness":"STALE","line1":"1 63848U 25093N   26263.15656954  .00010097  00000+0  37581-3 0  9991","line2":"2 63848  43.0045  59.6292 0002603 266.8117  93.2437 15.27590450 77495","mean_motion":15.2759045,"eccentricity":0.0002603,"inclination_deg":43.0045,"raan_deg":59.6292,"arg_perigee_deg":266.8117,"mean_anomaly_deg":93.2437,"bstar":0.00037581,"rev_number":7749,"period_min":94.266103850021,"perigee_km":481.23184656288,"apogee_km":484.80376375445,"semimajor_km":6861.1548051587,"source":"CELESTRAK","updated_at":"2026-09-21T09:00:35.133593Z"}}}